87P/Bus (2000)

Japanese version
Home page
Total 6,336 html files since Dec. 4, 1995
Updated on May 27, 2001

---------------------------------------------------------------------

* Profile

* Orbital Elements

Epoch 2001 Jan. 11.0 TT = JDT 2451920.5  
T 2000 Dec. 29.75876 TT                                 Muraoka 
q   2.1809118            (2000.0)            P               Q
n   0.15120274     Peri.   24.14603     -0.89608870     +0.44387165
a   3.4894979      Node   182.20741     -0.41420638     -0.83758864
e   0.3750070      Incl.    2.57417     -0.15955597     -0.31847014
P   6.52
From 79 observations 1981-2000, mean residual 0".82.  Nongravitational
   parameters A1 = +0.36 +/- 0.13, A2 = -0.3534 +/- 0.0045.

* Finding Charts

* Magnitudes Graph

        m1 = 11.0 + 5 log d + 15.0 log r

---------------------------------------------------------------------

The orbital elements are calculated by Kenji Muraoka.
The charts are made with StellaNavigator Ver.2.0 for Windows (AstroArts / ASCII).
The magnitudes graphs are made with Comet for Windows.

---------------------------------------------------------------------

Copyright(C) 1995-2008 Seiichi Yoshida (comet@aerith.net). All rights reserved.